• In Deutschland
  • Länderverzeichnis
  • Für 7 Tage
  • Wassertemperatur
  • Satellitenkarten
  • Wetterkarte
  • Widgets
  • user-avatar
    Anmelden

    Stündliche Wetter Biskira

    Heute, 29 April, Samstag

    Zeit Temperatur Niederschläge Wind Luftdruck Luftfeuchtigkeit
    00:00 +22°C° 0 mm 6 m/S 748 mmHg 51%
    01:00 +22°C° 0 mm 6 m/S 748 mmHg 52%
    02:00 +21°C° 0 mm 5 m/S 748 mmHg 52%
    03:00 +21°C° 0 mm 4 m/S 748 mmHg 53%
    04:00 +21°C° 0 mm 4 m/S 749 mmHg 53%
    05:00 +21°C° 0 mm 3 m/S 749 mmHg 52%
    06:00 +21°C° 0 mm 3 m/S 749 mmHg 51%
    07:00 +22°C° 0 mm 3 m/S 749 mmHg 47%
    08:00 +25°C° 0 mm 3 m/S 749 mmHg 43%
    09:00 +26°C° 0 mm 3 m/S 749 mmHg 38%
    10:00 +27°C° 0 mm 3 m/S 749 mmHg 35%
    11:00 +28°C° 0 mm 3 m/S 749 mmHg 32%
    12:00 +29°C° 0 mm 2 m/S 749 mmHg 29%
    13:00 +30°C° 0 mm 2 m/S 748 mmHg 28%
    14:00 +31°C° 0 mm 2 m/S 748 mmHg 26%
    15:00 +31°C° 0 mm 2 m/S 748 mmHg 25%
    16:00 +31°C° 0 mm 2 m/S 748 mmHg 26%
    17:00 +30°C° 0 mm 2 m/S 748 mmHg 28%
    18:00 +30°C° 0 mm 2 m/S 748 mmHg 29%
    19:00 +29°C° 0,1 mm 2 m/S 748 mmHg 31%
    20:00 +29°C° 0,1 mm 2 m/S 749 mmHg 33%
    21:00 +28°C° 0,1 mm 2 m/S 749 mmHg 35%
    22:00 +27°C° 0,1 mm 2 m/S 749 mmHg 37%
    23:00 +27°C° 0,1 mm 2 m/S 750 mmHg 38%

    Morgen, 30 April, Sonntag

    Zeit Temperatur Niederschläge Wind Luftdruck Luftfeuchtigkeit
    00:00 +26°C° 0,1 mm 2 m/S 750 mmHg 40%
    01:00 +25°C° 0,1 mm 3 m/S 750 mmHg 42%
    02:00 +25°C° 0,1 mm 4 m/S 749 mmHg 45%
    03:00 +23°C° 0,1 mm 4 m/S 749 mmHg 47%
    04:00 +22°C° 0,1 mm 4 m/S 750 mmHg 48%
    05:00 +22°C° 0,1 mm 3 m/S 750 mmHg 50%
    06:00 +22°C° 0,1 mm 3 m/S 750 mmHg 51%
    07:00 +24°C° 0,2 mm 3 m/S 750 mmHg 48%
    08:00 +25°C° 0,2 mm 2 m/S 750 mmHg 44%
    09:00 +26°C° 0,2 mm 2 m/S 751 mmHg 41%
    10:00 +27°C° 0 mm 3 m/S 750 mmHg 37%
    11:00 +29°C° 0 mm 3 m/S 750 mmHg 33%
    12:00 +30°C° 0 mm 3 m/S 749 mmHg 30%
    13:00 +30°C° 0,1 mm 3 m/S 749 mmHg 29%
    14:00 +31°C° 0,1 mm 2 m/S 748 mmHg 28%
    15:00 +31°C° 0,1 mm 2 m/S 748 mmHg 27%
    16:00 +31°C° 0,1 mm 2 m/S 748 mmHg 28%
    17:00 +30°C° 0,1 mm 2 m/S 748 mmHg 30%
    18:00 +30°C° 0,1 mm 2 m/S 749 mmHg 31%
    19:00 +29°C° 0 mm 2 m/S 749 mmHg 35%
    20:00 +28°C° 0 mm 3 m/S 750 mmHg 38%
    21:00 +27°C° 0 mm 3 m/S 751 mmHg 42%
    22:00 +26°C° 0 mm 3 m/S 751 mmHg 45%
    23:00 +26°C° 0 mm 3 m/S 751 mmHg 48%

    übermorgen, 1 Mai, Montag

    Zeit Temperatur Niederschläge Wind Luftdruck Luftfeuchtigkeit
    00:00 +25°C° 0 mm 4 m/S 751 mmHg 51%
    01:00 +24°C° 0 mm 3 m/S 751 mmHg 53%
    02:00 +24°C° 0 mm 3 m/S 751 mmHg 55%
    03:00 +23°C° 0 mm 2 m/S 751 mmHg 57%
    04:00 +23°C° 0 mm 2 m/S 752 mmHg 57%
    05:00 +23°C° 0 mm 2 m/S 752 mmHg 57%
    06:00 +23°C° 0 mm 2 m/S 752 mmHg 57%
    07:00 +24°C° 0 mm 2 m/S 753 mmHg 52%
    08:00 +25°C° 0 mm 3 m/S 753 mmHg 47%
    09:00 +27°C° 0 mm 3 m/S 753 mmHg 42%
    10:00 +28°C° 0 mm 3 m/S 753 mmHg 37%
    11:00 +29°C° 0 mm 2 m/S 753 mmHg 32%
    12:00 +30°C° 0 mm 2 m/S 753 mmHg 27%
    13:00 +30°C° 0 mm 2 m/S 752 mmHg 25%
    14:00 +31°C° 0 mm 3 m/S 752 mmHg 23%
    15:00 +31°C° 0 mm 3 m/S 751 mmHg 20%
    16:00 +31°C° 0 mm 2 m/S 751 mmHg 20%
    17:00 +30°C° 0 mm 2 m/S 752 mmHg 21%
    18:00 +30°C° 0 mm 2 m/S 752 mmHg 21%
    19:00 +29°C° 0 mm 3 m/S 752 mmHg 25%
    20:00 +28°C° 0 mm 3 m/S 753 mmHg 30%
    21:00 +27°C° 0 mm 3 m/S 754 mmHg 34%
    22:00 +26°C° 0 mm 4 m/S 754 mmHg 39%
    23:00 +25°C° 0 mm 4 m/S 754 mmHg 44%

    2 Mai, Dienstag

    Zeit Temperatur Niederschläge Wind Luftdruck Luftfeuchtigkeit
    00:00 +23°C° 0 mm 4 m/S 754 mmHg 50%
    01:00 +23°C° 0 mm 4 m/S 754 mmHg 52%
    02:00 +22°C° 0 mm 4 m/S 754 mmHg 53%
    03:00 +22°C° 0 mm 3 m/S 754 mmHg 55%
    04:00 +22°C° 0 mm 3 m/S 754 mmHg 56%
    05:00 +22°C° 0 mm 3 m/S 754 mmHg 56%
    06:00 +21°C° 0 mm 3 m/S 754 mmHg 56%
    07:00 +22°C° 0 mm 3 m/S 755 mmHg 53%
    08:00 +24°C° 0 mm 3 m/S 755 mmHg 51%
    09:00 +25°C° 0 mm 4 m/S 755 mmHg 48%
    10:00 +26°C° 0 mm 4 m/S 755 mmHg 46%
    11:00 +27°C° 0 mm 4 m/S 754 mmHg 43%
    12:00 +28°C° 0 mm 4 m/S 754 mmHg 41%
    13:00 +28°C° 0,1 mm 4 m/S 753 mmHg 39%
    14:00 +29°C° 0,1 mm 4 m/S 753 mmHg 36%
    15:00 +29°C° 0,1 mm 3 m/S 753 mmHg 34%
    16:00 +29°C° 0 mm 3 m/S 753 mmHg 34%
    17:00 +29°C° 0 mm 3 m/S 752 mmHg 34%
    18:00 +29°C° 0 mm 3 m/S 752 mmHg 35%
    19:00 +28°C° 0 mm 3 m/S 753 mmHg 36%
    20:00 +27°C° 0 mm 3 m/S 753 mmHg 37%
    21:00 +27°C° 0 mm 4 m/S 754 mmHg 39%
    22:00 +26°C° 0 mm 3 m/S 753 mmHg 40%
    23:00 +26°C° 0 mm 3 m/S 753 mmHg 41%

    3 Mai, Mittwoch

    Zeit Temperatur Niederschläge Wind Luftdruck Luftfeuchtigkeit
    00:00 +25°C° 0 mm 3 m/S 753 mmHg 42%
    01:00 +24°C° 0 mm 3 m/S 753 mmHg 43%
    02:00 +23°C° 0 mm 4 m/S 753 mmHg 44%
    03:00 +22°C° 0 mm 4 m/S 753 mmHg 45%
    04:00 +22°C° 0 mm 4 m/S 753 mmHg 46%
    05:00 +22°C° 0 mm 4 m/S 753 mmHg 46%
    06:00 +21°C° 0 mm 4 m/S 754 mmHg 47%
    07:00 +22°C° 0 mm 4 m/S 754 mmHg 44%
    08:00 +25°C° 0 mm 4 m/S 754 mmHg 41%
    09:00 +26°C° 0 mm 4 m/S 754 mmHg 38%
    10:00 +27°C° 0 mm 4 m/S 753 mmHg 36%
    11:00 +28°C° 0 mm 4 m/S 753 mmHg 34%
    12:00 +29°C° 0 mm 4 m/S 752 mmHg 31%
    13:00 +29°C° 0 mm 4 m/S 752 mmHg 30%
    14:00 +30°C° 0 mm 3 m/S 751 mmHg 29%
    15:00 +31°C° 0 mm 3 m/S 751 mmHg 27%
    16:00 +30°C° 0 mm 3 m/S 751 mmHg 28%
    17:00 +30°C° 0 mm 3 m/S 751 mmHg 29%
    18:00 +30°C° 0 mm 3 m/S 751 mmHg 29%
    19:00 +29°C° 0,1 mm 3 m/S 751 mmHg 32%
    20:00 +28°C° 0,1 mm 3 m/S 751 mmHg 34%
    21:00 +27°C° 0,1 mm 3 m/S 752 mmHg 37%
    22:00 +27°C° 0 mm 3 m/S 752 mmHg 38%
    23:00 +26°C° 0 mm 3 m/S 751 mmHg 39%

    4 Mai, Donnerstag

    Zeit Temperatur Niederschläge Wind Luftdruck Luftfeuchtigkeit
    00:00 +26°C° 0 mm 3 m/S 751 mmHg 40%
    01:00 +26°C° 0 mm 2 m/S 751 mmHg 40%
    02:00 +25°C° 0 mm 2 m/S 751 mmHg 41%
    03:00 +25°C° 0 mm 2 m/S 751 mmHg 41%
    04:00 +25°C° 0 mm 2 m/S 751 mmHg 40%
    05:00 +25°C° 0 mm 2 m/S 751 mmHg 40%
    06:00 +25°C° 0 mm 3 m/S 751 mmHg 40%
    07:00 +27°C° 0 mm 3 m/S 751 mmHg 36%
    08:00 +28°C° 0 mm 3 m/S 751 mmHg 32%
    09:00 +29°C° 0 mm 4 m/S 751 mmHg 29%
    10:00 +30°C° 0 mm 4 m/S 750 mmHg 27%
    11:00 +32°C° 0 mm 4 m/S 750 mmHg 25%
    12:00 +33°C° 0 mm 4 m/S 750 mmHg 23%
    13:00 +34°C° 0 mm 4 m/S 749 mmHg 22%
    14:00 +35°C° 0 mm 4 m/S 749 mmHg 20%
    15:00 +35°C° 0 mm 4 m/S 748 mmHg 19%
    16:00 +35°C° 0 mm 4 m/S 748 mmHg 20%
    17:00 +34°C° 0 mm 4 m/S 748 mmHg 21%
    18:00 +34°C° 0 mm 5 m/S 749 mmHg 22%
    19:00 +33°C° 0 mm 4 m/S 749 mmHg 25%
    20:00 +32°C° 0 mm 4 m/S 749 mmHg 27%
    21:00 +29°C° 0 mm 3 m/S 750 mmHg 29%
    22:00 +29°C° 0 mm 3 m/S 750 mmHg 30%
    23:00 +29°C° 0 mm 3 m/S 750 mmHg 30%
    Mehr zeigen